Home   Weather   Munising   Past weeks
Flag for USA

Past Weather in Munising, Michigan, USA — Yesterday and Last 2 Weeks

Now
54 °F

Cool.


Feels Like: 50 °F
Forecast: 57 / 41 °F
Wind: 13 mph from South

Location: Munising - Munising Lakeshore

Current Time: May 24, 2019 at 5:21:51 pm

Latest Report: May 24, 2019 at 3:56 pm


Visibility: N/A

Pressure: 30.08 "Hg

Humidity: 72%

Dew Point: 45 °F

Location of MunisingLocation

Past Weather in Munising — Graph

°F

Munising Temperature Yesterday

Maximum temperature yesterday: 60 °F (at 8:56 am)
Minimum temperature yesterday: 45 °F (at 11:56 pm)
Average temperature yesterday: 51 °F

High & Low Weather Summary for the Past Weeks

 TemperatureHumidityPressure
High62 °F (May 14, 12:56 pm)97% (May 9, 8:56 pm)30.25 "Hg (May 9, 8:56 pm)
Low30 °F (May 12, 5:56 am)28% (May 11, 12:56 pm)29.62 "Hg (May 16, 1:56 pm)
Average44 °F75%29.96 "Hg
* Reported May 9 3:56 pm — May 24 3:56 pm, Munising. Weather by CustomWeather, © 2019

Note: Actual official high and low records may vary slightly from our data, if they occured in-between our weather recording intervals... More about our weather records

Advertising

Munising Weather History for the Previous 24 Hours

Scroll right to see more
 ConditionsComfort  
Time TempWeatherWind HumidityBarometerVisibility
3:56 pm
Fri, May 24
54 °FCool.13 mph72%30.08 "HgN/A
2:56 pm57 °FCool.9 mph67%30.09 "HgN/A
1:56 pm45 °FCool.No wind82%30.12 "HgN/A
12:56 pm44 °FQuite cool.7 mph85%30.16 "HgN/A
11:56 am46 °FCool.No wind83%30.16 "HgN/A
10:56 am45 °FCool.3 mph86%30.15 "HgN/A
9:56 am45 °FCool.3 mph90%30.17 "HgN/A
8:56 am44 °FQuite cool.No wind85%30.18 "HgN/A
7:56 am42 °FQuite cool.6 mph92%30.19 "HgN/A
6:56 am42 °FQuite cool.3 mph92%30.20 "HgN/A
5:56 am42 °FQuite cool.5 mph92%30.16 "HgN/A
4:56 am42 °FQuite cool.3 mph96%30.14 "HgN/A
3:56 am42 °FQuite cool.5 mph92%30.13 "HgN/A
2:56 am42 °FQuite cool.6 mph92%30.13 "HgN/A
1:56 am42 °FQuite cool.8 mph96%30.12 "HgN/A
12:56 am43 °FQuite cool.9 mph97%30.11 "HgN/A
11:56 pm
Thu, May 23
45 °FCool.12 mph90%30.11 "HgN/A
10:56 pm46 °FCool.10 mph89%30.10 "HgN/A
9:56 pm46 °FCool.9 mph89%30.09 "HgN/A
8:56 pm49 °FCool.6 mph86%30.06 "HgN/A
7:56 pm48 °FCool.8 mph86%30.04 "HgN/A
6:56 pm46 °FCool.13 mph86%30.01 "HgN/A
5:56 pm50 °FCool.14 mph80%29.98 "HgN/A
Weather by CustomWeather, © 2019

See weather overview